028  
ASUS41 KRLX 241310  
RWRRLX  
REGIONAL WEATHER ROUNDUP  
NATIONAL WEATHER SERVICE CHARLESTON WV  
900 AM EDT MON SEP 24 2018  
 
NOTE: "FAIR" INDICATES FEW OR NO CLOUDS BELOW 12,000 FEET WITH NO  
SIGNIFICANT WEATHER AND/OR S TO VISIBILITY
.  
 
WVZ003-241400-  
NORTHERN PANHANDLE OF WEST VIRGINIA  
 
CITY SKY/WX TMP DP RH WIND PRES REMARKS
 
WHEELING FAIR 61 57 87 E9 30.23R  

 
 
WVZ009-241400-  
NORTHWEST WEST VIRGINIA  
 
CITY SKY/WX TMP DP RH WIND PRES REMARKS
 
PARKERSBURG CLOUDY 64 62 93 E5 30.23R FOG  

 
 
WVZ006-241400-  
WESTERN WEST VIRGINIA  
 
CITY SKY/WX TMP DP RH WIND PRES REMARKS
 
HUNTINGTON LGT RAIN 66 65 96 CALM 30.17R FOG  

 
 
WVZ015-241400-  
WEST CENTRAL WEST VIRGINIA  
 
CITY SKY/WX TMP DP RH WIND PRES REMARKS
 
CHARLESTON LGT RAIN 66 66 100 CALM 30.20R FOG  

 
 
WVZ022-031-241400-  
NORTH CENTRAL WEST VIRGINIA  
 
CITY SKY/WX TMP DP RH WIND PRES REMARKS
 
MORGANTOWN PTSUNNY 64 57 78 SE18G26 30.25S  
CLARKSBURG PTSUNNY 66 59 78 E5 30.24R  
BUCKHANNON DRIZZLE 64 64 100 E5 30.24R  

 
 
WVZ025-035-042-045-241400-  
SOUTHERN WEST VIRGINIA  
 
CITY SKY/WX TMP DP RH WIND PRES REMARKS
 
BECKLEY LGT RAIN 61 58 90 SE9 30.28R  
LOGAN LGT RAIN 66 66 100 CALM 30.22R  
PINEVILLE CLOUDY 66 64 91 MISG 30.29R  
BLUEFIELD FOG 58 58 100 VRB5 30.30R VSB 1  
LEWISBURG DRIZZLE 60 58 94 CALM 30.32R  

 
 
WVZ047-241400-  
NORTHERN MOUNTAINS OF WEST VIRGINIA  
 
CITY SKY/WX TMP DP RH WIND PRES REMARKS
 
ELKINS LGT RAIN 61 59 93 CALM 30.29R FOG  

 
 
WVZ052-241400-  
EASTERN PANHANDLE OF WEST VIRGINIA  
 
CITY SKY/WX TMP DP RH WIND PRES REMARKS
 
MARTINSBURG CLOUDY 60 60 100 N5 30.34R FOG  
PETERSBURG DRIZZLE 59 58 98 CALM 30.34R  

 
 
SOUTHEAST OHIO/NORTHEAST KENTUCKY  
 
CITY SKY/WX TMP DP RH WIND PRES REMARKS
 
ATHENS HVY RAIN 65 65 100 CALM 30.17S  
ASHLAND LGT RAIN 66 66 100 CALM 30.17R  

 
 
 
CLICK HERE TO GO TO PREVIOUS BULLETINS.

The Nexlab WV Page
The Nexlab OH Page
The Nexlab KY Page
The Nexlab VA Page Main Text Page